User: anonymous   Login
Location: Caltech
(34.1382°N, 118.1253°W)
Time: 07:02:10
(UTC-08:00)
Language:

AO-Echo - Orbit

View from above orbital plane
View from above orbital plane
View from above satellite
View from above satellite

Ground track
Ground track

The orbit data is extracted from the following two-line orbital elements,

1 28375U 04025K   15061.07794495  .00000409  00000-0  13406-3 0  9994
2 28375 098.2826 004.6613 0081698 293.5563 065.7060 14.41597121561053
Epoch (UTC): 02 March 2015 01:52:14
Eccentricity: 0.0081698
inclination: 98.2826°
perigee height: 695 km
apogee height: 811 km
right ascension of ascending node: 4.6613°
argument of perigee: 293.5563°
revolutions per day: 14.41597121
mean anomaly at epoch: 65.7060°
orbit number at epoch: 56105

The dashed part of the orbit path shows where the satellite is in the earth's shadow,  

DLR